Weather History for Williams, AZ

Change the Weather History Date:

Saturday, January 12, 2013

  Actual Average (KFLG) Record (KFLG)
Temperature  
Mean Temperature 12 °F 30 °F  
Max Temperature 23 °F 42 °F 59 °F (2002)
Min Temperature 0 °F 17 °F -20 °F (1963)
Degree Days  
Heating Degree Days 54 35  
Month to date heating degree days 426  
Since 1 July heating degree days 3254  
Cooling Degree Days 0 0  
Month to date cooling degree days 0  
Year to date cooling degree days 0  
Moisture  
Dew Point -1 °F    
Average Humidity 63    
Maximum Humidity 85    
Minimum Humidity 36    
Precipitation  
Precipitation 0.00 in 0.07 in 1.00 in (2001)
Month to date precipitation 0.86  
Year to date precipitation 0.86  
Snow  
Snow 0.00 in 0.80 in 8.20 in (1960)
Month to date snowfall 8.6  
Since 1 July snowfall 37.7  
Snow Depth -    
Sea Level Pressure  
Sea Level Pressure 29.94 in    
Wind  
Wind Speed 6 mph (South)    
Max Wind Speed 12 mph    
Max Gust Speed 17 mph    
Visibility 10 miles    
Events      
T = Trace of Precipitation, MM = Missing Value Source: NWS Daily Summary

Daily Weather History Graph

Daily Weather History Graph

Search for Another Location

Airport:

Trip Planner

Search our weather history database for the weather conditions in past years. The results will help you decide how hot, cold, wet, or windy it might be!

Date:

Astronomy

Jan. 12, 2013 Rise Set
Actual Time 7:37 AM MST 5:37 PM MST
Civil Twilight 7:09 AM MST 6:04 PM MST
Nautical Twilight 6:38 AM MST 6:36 PM MST
Astronomical Twilight 6:07 AM MST 7:06 PM MST
Moon 8:02 AM MST (1/12) 7:05 PM MST (1/12)
Length of Visible Light 10h 55m
Length of Day
9h 59m
New Moon, 1% of the Moon is Illuminated
Jan 12
New Moon
Jan 18
First Quarter
Jan 26
Full
Feb 3
Last Quarter
Feb 10
New

Hourly Weather History & Observations

Time (MST) Temp. Windchill Dew Point Humidity Pressure Visibility Wind Dir Wind Speed Gust Speed Precip Events Conditions
12:15 AM 1.4 °F -13.5 °F -4.0 °F 78% 29.93 in 10.0 mi SSE 9.2 mph - N/A   Clear
12:35 AM 1.4 °F -13.5 °F -4.0 °F 78% 29.93 in 10.0 mi SSE 9.2 mph - N/A   Clear
12:55 AM 1.4 °F -12.5 °F -4.0 °F 78% 29.92 in 10.0 mi SSE 8.1 mph - N/A   Clear
1:15 AM -0.4 °F -15.7 °F -4.0 °F 85% 29.92 in 10.0 mi SSE 9.2 mph - N/A   Clear
1:35 AM 1.4 °F -13.5 °F -4.0 °F 78% 29.91 in 10.0 mi SSE 9.2 mph - N/A   Partly Cloudy
1:55 AM 1.4 °F -13.5 °F -4.0 °F 78% 29.91 in 10.0 mi SSE 9.2 mph - N/A   Mostly Cloudy
2:35 AM 1.4 °F -12.5 °F -4.0 °F 78% 29.91 in 10.0 mi SSE 8.1 mph - N/A   Overcast
2:55 AM 1.4 °F -11.3 °F -2.2 °F 85% 29.91 in 10.0 mi SSE 6.9 mph - N/A   Mostly Cloudy
3:15 AM 1.4 °F -11.3 °F -2.2 °F 85% 29.91 in 10.0 mi SSE 6.9 mph - N/A   Overcast
3:35 AM 1.4 °F -12.5 °F -2.2 °F 85% 29.90 in 10.0 mi SSE 8.1 mph - N/A   Overcast
3:55 AM 1.4 °F -13.5 °F -2.2 °F 85% 29.89 in 10.0 mi SSE 9.2 mph - N/A   Mostly Cloudy
4:15 AM 3.2 °F -10.3 °F -2.2 °F 78% 29.88 in 10.0 mi SSE 8.1 mph - N/A   Scattered Clouds
4:35 AM 3.2 °F -9.1 °F -2.2 °F 78% 29.88 in 10.0 mi SSE 6.9 mph - N/A   Partly Cloudy
4:55 AM 1.4 °F -11.3 °F -4.0 °F 78% 29.88 in 10.0 mi SSE 6.9 mph - N/A   Partly Cloudy
5:15 AM 1.4 °F -12.5 °F -4.0 °F 78% 29.88 in 10.0 mi SSE 8.1 mph - N/A   Clear
5:35 AM 1.4 °F -9.9 °F -2.2 °F 85% 29.89 in 10.0 mi SSE 5.8 mph - N/A   Scattered Clouds
5:55 AM 1.4 °F -9.9 °F -2.2 °F 85% 29.89 in 10.0 mi SSE 5.8 mph - N/A   Partly Cloudy
6:15 AM 3.2 °F - -2.2 °F 78% 29.90 in 10.0 mi Calm Calm - N/A   Scattered Clouds
6:35 AM 3.2 °F -9.1 °F -2.2 °F 78% 29.90 in 10.0 mi SSE 6.9 mph - N/A   Scattered Clouds
6:55 AM 3.2 °F - -2.2 °F 78% 29.91 in 10.0 mi Calm Calm - N/A   Partly Cloudy
7:15 AM 3.2 °F - -2.2 °F 78% 29.92 in 10.0 mi Calm Calm - N/A   Mostly Cloudy
7:35 AM 5.0 °F - -0.4 °F 78% 29.93 in 10.0 mi Calm Calm - N/A   Mostly Cloudy
7:55 AM 5.0 °F -8.1 °F -0.4 °F 78% 29.94 in 10.0 mi SSE 8.1 mph - N/A   Clear
8:15 AM 5.0 °F - -0.4 °F 78% 29.94 in 10.0 mi Calm Calm - N/A   Clear
8:55 AM 10.4 °F - 1.4 °F 67% 29.96 in 10.0 mi Calm Calm - N/A   Clear
9:15 AM 14.0 °F - 5.0 °F 67% 29.97 in 10.0 mi Calm Calm - N/A   Clear
9:35 AM 14.0 °F - 5.0 °F 67% 29.97 in 10.0 mi Calm Calm - N/A   Clear
9:55 AM 15.8 °F - 6.8 °F 68% 29.97 in 10.0 mi Calm Calm - N/A   Clear
10:15 AM 15.8 °F - 6.8 °F 68% 29.97 in 10.0 mi Calm Calm - N/A   Partly Cloudy
10:55 AM 15.8 °F 6.1 °F 5.0 °F 62% 29.97 in 10.0 mi NW 6.9 mph - N/A   Mostly Cloudy
11:15 AM 15.8 °F - 5.0 °F 62% 29.96 in 10.0 mi Calm Calm - N/A   Mostly Cloudy
11:35 AM 17.6 °F - 3.2 °F 53% 29.96 in 10.0 mi Calm Calm - N/A   Partly Cloudy
11:55 AM 19.4 °F - 1.4 °F 46% 29.95 in 10.0 mi Calm Calm - N/A   Partly Cloudy
12:15 PM 15.8 °F 8.6 °F 3.2 °F 58% 29.94 in 10.0 mi WNW 4.6 mph - N/A   Partly Cloudy
12:35 PM 17.6 °F 10.7 °F -0.4 °F 45% 29.93 in 10.0 mi West 4.6 mph - N/A   Clear
12:55 PM 19.4 °F 7.9 °F -0.4 °F 42% 29.93 in 10.0 mi West 10.4 mph - N/A   Scattered Clouds
1:15 PM 19.4 °F 7.2 °F -0.4 °F 42% 29.92 in 10.0 mi WNW 11.5 mph - N/A   Mostly Cloudy
1:35 PM 19.4 °F 9.5 °F -0.4 °F 42% 29.92 in 10.0 mi NNW 8.1 mph - N/A   Mostly Cloudy
1:55 PM 17.6 °F 8.2 °F -2.2 °F 42% 29.92 in 10.0 mi WNW 6.9 mph - N/A   Clear
2:15 PM 19.4 °F 10.4 °F -4.0 °F 36% 29.92 in 10.0 mi NW 6.9 mph - N/A   Clear
2:35 PM 19.4 °F - -2.2 °F 39% 29.92 in 10.0 mi Calm Calm - N/A   Scattered Clouds
2:55 PM 21.2 °F 11.7 °F -2.2 °F 36% 29.92 in 10.0 mi WSW 8.1 mph - N/A   Scattered Clouds
3:15 PM 19.4 °F - -2.2 °F 39% 29.93 in 10.0 mi Calm Calm - N/A   Partly Cloudy
3:35 PM 23.0 °F 14.7 °F -0.4 °F 36% 29.92 in 10.0 mi WSW 6.9 mph - N/A   Mostly Cloudy
3:55 PM 21.2 °F 10.9 °F -0.4 °F 39% 29.93 in 10.0 mi WSW 9.2 mph - N/A   Mostly Cloudy
4:15 PM 19.4 °F 10.4 °F -0.4 °F 42% 29.93 in 10.0 mi WSW 6.9 mph - N/A   Partly Cloudy
4:35 PM 19.4 °F 10.4 °F -0.4 °F 42% 29.93 in 10.0 mi WSW 6.9 mph - N/A   Partly Cloudy
4:55 PM 19.4 °F 7.9 °F -4.0 °F 36% 29.93 in 10.0 mi WSW 10.4 mph 17.3 mph N/A   Partly Cloudy
5:15 PM 19.4 °F 8.6 °F -2.2 °F 39% 29.93 in 10.0 mi West 9.2 mph - N/A   Clear
5:35 PM 17.6 °F 9.3 °F -0.4 °F 45% 29.93 in 10.0 mi West 5.8 mph - N/A   Clear
5:55 PM 17.6 °F - -0.4 °F 45% 29.94 in 10.0 mi Calm Calm - N/A   Scattered Clouds
6:15 PM 15.8 °F - -0.4 °F 49% 29.94 in 10.0 mi Calm Calm - N/A   Mostly Cloudy
6:35 PM 15.8 °F - -0.4 °F 49% 29.95 in 10.0 mi Calm Calm - N/A   Mostly Cloudy
6:55 PM 15.8 °F - -0.4 °F 49% 29.95 in 10.0 mi Calm Calm - N/A   Overcast
7:15 PM 14.0 °F - -0.4 °F 53% 29.96 in 10.0 mi Calm Calm - N/A   Mostly Cloudy
7:35 PM 14.0 °F 6.5 °F -0.4 °F 53% 29.96 in 10.0 mi WSW 4.6 mph - N/A   Scattered Clouds
7:55 PM 12.2 °F - -0.4 °F 57% 29.96 in 10.0 mi Calm Calm - N/A   Clear
8:15 PM 10.4 °F - -2.2 °F 57% 29.96 in 10.0 mi Calm Calm - N/A   Clear
8:55 PM 8.6 °F - -2.2 °F 62% 29.97 in 10.0 mi Calm Calm - N/A   Clear
9:15 PM 6.8 °F - -2.2 °F 67% 29.98 in 10.0 mi Calm Calm - N/A   Clear
9:35 PM 5.0 °F - -2.2 °F 72% 29.98 in 10.0 mi Calm Calm - N/A   Clear
9:55 PM 5.0 °F -8.1 °F -2.2 °F 72% 29.98 in 10.0 mi SSE 8.1 mph - N/A   Clear
10:15 PM 5.0 °F -6.9 °F -2.2 °F 72% 29.98 in 10.0 mi SSE 6.9 mph - N/A   Clear
10:35 PM 5.0 °F -8.1 °F -4.0 °F 66% 29.98 in 10.0 mi SSE 8.1 mph - N/A   Clear
10:55 PM 3.2 °F -7.8 °F -4.0 °F 72% 29.99 in 10.0 mi SSE 5.8 mph - N/A   Clear
11:15 PM 1.4 °F -12.5 °F -4.0 °F 78% 29.99 in 10.0 mi SSE 8.1 mph - N/A   Clear
11:35 PM 1.4 °F -11.3 °F -4.0 °F 78% 29.99 in 10.0 mi SSE 6.9 mph - N/A   Clear
11:55 PM 1.4 °F -11.3 °F -4.0 °F 78% 29.99 in 10.0 mi SSE 6.9 mph - N/A   Clear